TimeCDT,TemperatureF,Dew PointF,Humidity,Sea Level PressureIn,VisibilityMPH,Wind Direction,Wind SpeedMPH,Gust SpeedMPH,PrecipitationIn,Events,Conditions,WindDirDegrees,DateUTC
12:15 AM,32.0,28.4,87,29.96,10.0,NNW,21.9,26.5,N/A,,Overcast,330,2013-04-18 05:15:00
12:35 AM,32.0,28.4,87,29.95,10.0,NNW,18.4,26.5,N/A,,Overcast,330,2013-04-18 05:35:00
12:55 AM,32.0,28.4,87,29.94,10.0,NNW,21.9,29.9,N/A,,Overcast,330,2013-04-18 05:55:00
1:15 AM,32.0,30.2,93,29.91,10.0,NNW,24.2,31.1,N/A,,Overcast,330,2013-04-18 06:15:00
1:35 AM,32.0,28.4,87,29.94,10.0,NNW,23.0,28.8,N/A,,Overcast,330,2013-04-18 06:35:00
1:55 AM,32.0,28.4,87,29.95,10.0,NNW,19.6,27.6,N/A,,Overcast,330,2013-04-18 06:55:00
2:15 AM,32.0,28.4,87,29.94,10.0,NNW,21.9,-,N/A,,Overcast,330,2013-04-18 07:15:00
2:35 AM,32.0,28.4,87,29.91,10.0,NNW,20.7,26.5,N/A,,Overcast,330,2013-04-18 07:35:00
2:55 AM,30.2,28.4,93,29.92,10.0,NNW,19.6,28.8,N/A,,Overcast,330,2013-04-18 07:55:00
3:15 AM,30.2,28.4,93,29.92,10.0,NW,20.7,28.8,N/A,,Overcast,320,2013-04-18 08:15:00
3:35 AM,30.2,28.4,93,29.89,5.0,NNW,25.3,29.9,N/A,,Overcast,330,2013-04-18 08:35:00
3:55 AM,30.2,28.4,93,29.90,3.0,NNW,23.0,31.1,N/A,,Overcast,330,2013-04-18 08:55:00
4:15 AM,30.2,28.4,93,29.87,2.5,NNW,25.3,32.2,N/A,,Overcast,330,2013-04-18 09:15:00
4:35 AM,30.2,28.4,93,29.86,3.0,NNW,26.5,31.1,N/A,,Overcast,330,2013-04-18 09:35:00
4:55 AM,30.2,26.6,86,29.87,9.0,NW,24.2,29.9,N/A,,Overcast,320,2013-04-18 09:55:00
5:15 AM,30.2,26.6,86,29.85,10.0,NNW,26.5,34.5,N/A,,Overcast,330,2013-04-18 10:15:00
5:35 AM,30.2,26.6,86,29.84,10.0,NNW,25.3,32.2,N/A,,Overcast,330,2013-04-18 10:35:00
5:55 AM,30.2,26.6,86,29.84,9.0,NW,27.6,33.4,N/A,,Overcast,320,2013-04-18 10:55:00
6:15 AM,30.2,26.6,86,29.84,5.0,NW,27.6,33.4,N/A,,Overcast,320,2013-04-18 11:15:00
6:35 AM,28.4,26.6,93,29.83,3.0,NW,24.2,32.2,N/A,,Overcast,320,2013-04-18 11:35:00
6:55 AM,28.4,26.6,93,29.83,6.0,NW,27.6,36.8,N/A,,Overcast,320,2013-04-18 11:55:00
7:15 AM,28.4,26.6,93,29.83,7.0,NW,26.5,34.5,N/A,,Overcast,320,2013-04-18 12:15:00
7:35 AM,28.4,26.6,93,29.83,7.0,NW,25.3,35.7,N/A,,Overcast,310,2013-04-18 12:35:00
7:55 AM,28.4,26.6,93,29.85,8.0,NW,27.6,31.1,N/A,,Overcast,320,2013-04-18 12:55:00
8:15 AM,28.4,24.8,86,29.86,4.0,NW,23.0,36.8,N/A,,Overcast,310,2013-04-18 13:15:00
8:35 AM,28.4,26.6,93,29.87,2.0,NW,24.2,31.1,N/A,,Overcast,320,2013-04-18 13:35:00
8:55 AM,28.4,26.6,93,29.87,1.5,NW,21.9,31.1,N/A,,Overcast,320,2013-04-18 13:55:00
9:15 AM,28.4,26.6,93,29.87,1.2,NW,26.5,33.4,N/A,,Overcast,320,2013-04-18 14:15:00
9:35 AM,28.4,26.6,93,29.88,0.5,NW,23.0,32.2,N/A,,Overcast,320,2013-04-18 14:35:00
9:55 AM,28.4,26.6,93,29.87,0.8,NW,24.2,34.5,N/A,,Overcast,320,2013-04-18 14:55:00
10:15 AM,28.4,26.6,93,29.87,1.2,NW,24.2,31.1,N/A,,Overcast,320,2013-04-18 15:15:00
10:35 AM,28.4,26.6,93,29.86,1.0,NW,26.5,33.4,N/A,,Overcast,320,2013-04-18 15:35:00
10:55 AM,28.4,26.6,93,29.86,1.2,NW,28.8,33.4,N/A,,Overcast,320,2013-04-18 15:55:00
11:15 AM,30.2,26.6,86,29.85,1.0,NW,29.9,34.5,N/A,,Overcast,320,2013-04-18 16:15:00
11:35 AM,30.2,26.6,86,29.85,1.5,NW,24.2,29.9,N/A,,Overcast,310,2013-04-18 16:35:00
11:55 AM,30.2,26.6,86,29.85,2.0,NW,24.2,34.5,N/A,,Overcast,310,2013-04-18 16:55:00
12:15 PM,30.2,26.6,86,29.85,2.0,NW,26.5,31.1,N/A,,Overcast,310,2013-04-18 17:15:00
12:35 PM,30.2,26.6,86,29.84,1.8,NW,25.3,31.1,N/A,,Overcast,310,2013-04-18 17:35:00
12:55 PM,30.2,26.6,86,29.84,1.0,NW,26.5,34.5,N/A,,Overcast,310,2013-04-18 17:55:00
1:15 PM,30.2,26.6,86,29.84,1.2,NW,23.0,31.1,N/A,,Overcast,310,2013-04-18 18:15:00
1:35 PM,30.2,26.6,86,29.84,1.0,NW,26.5,35.7,N/A,,Overcast,310,2013-04-18 18:35:00
1:55 PM,30.2,26.6,86,29.83,1.0,NW,26.5,36.8,N/A,,Overcast,310,2013-04-18 18:55:00
2:15 PM,30.2,26.6,86,29.84,1.0,NW,25.3,35.7,N/A,,Overcast,310,2013-04-18 19:15:00
2:35 PM,30.2,26.6,86,29.83,1.2,NW,28.8,32.2,N/A,,Overcast,310,2013-04-18 19:35:00
2:55 PM,30.2,28.4,93,29.84,1.0,NW,26.5,32.2,N/A,,Overcast,310,2013-04-18 19:55:00
3:35 PM,30.2,28.4,93,29.84,1.0,NW,24.2,35.7,N/A,,Overcast,310,2013-04-18 20:35:00
3:55 PM,30.2,28.4,93,29.85,1.0,NW,28.8,38.0,N/A,,Overcast,310,2013-04-18 20:55:00
4:15 PM,32.0,28.4,87,29.85,4.0,WNW,29.9,38.0,N/A,,Overcast,300,2013-04-18 21:15:00
4:35 PM,30.2,28.4,93,29.85,1.5,WNW,31.1,36.8,N/A,,Overcast,300,2013-04-18 21:35:00
4:55 PM,30.2,26.6,86,29.85,1.5,NW,32.2,38.0,N/A,,Overcast,310,2013-04-18 21:55:00
5:15 PM,30.2,28.4,93,29.86,1.2,NW,31.1,39.1,N/A,,Overcast,310,2013-04-18 22:15:00
5:35 PM,30.2,26.6,86,29.86,1.0,NW,31.1,36.8,N/A,,Overcast,310,2013-04-18 22:35:00
5:55 PM,30.2,26.6,86,29.86,1.5,NW,29.9,36.8,N/A,,Overcast,310,2013-04-18 22:55:00
6:15 PM,30.2,26.6,86,29.86,1.5,NW,29.9,36.8,N/A,,Overcast,310,2013-04-18 23:15:00
6:35 PM,30.2,28.4,93,29.87,1.5,WNW,28.8,36.8,N/A,,Overcast,300,2013-04-18 23:35:00
6:55 PM,30.2,26.6,86,29.87,1.8,WNW,26.5,33.4,N/A,,Overcast,300,2013-04-18 23:55:00
7:15 PM,30.2,28.4,93,29.87,1.8,WNW,27.6,32.2,N/A,,Overcast,300,2013-04-19 00:15:00
7:35 PM,30.2,28.4,93,29.88,1.8,NW,24.2,34.5,N/A,,Overcast,310,2013-04-19 00:35:00
7:55 PM,30.2,28.4,93,29.88,2.0,NW,25.3,28.8,N/A,,Overcast,310,2013-04-19 00:55:00
8:15 PM,30.2,28.4,93,29.89,3.0,WNW,21.9,-,N/A,,Overcast,300,2013-04-19 01:15:00
8:35 PM,30.2,28.4,93,29.89,5.0,WNW,24.2,29.9,N/A,,Mostly Cloudy,300,2013-04-19 01:35:00
8:55 PM,30.2,28.4,93,29.89,9.0,WNW,21.9,29.9,N/A,,Mostly Cloudy,300,2013-04-19 01:55:00
9:15 PM,30.2,28.4,93,29.90,10.0,WNW,20.7,28.8,N/A,,Mostly Cloudy,300,2013-04-19 02:15:00
9:35 PM,32.0,26.6,80,29.90,10.0,WNW,24.2,31.1,N/A,,Partly Cloudy,300,2013-04-19 02:35:00
9:55 PM,32.0,26.6,80,29.90,10.0,WNW,23.0,28.8,N/A,,Scattered Clouds,300,2013-04-19 02:55:00
10:35 PM,30.2,24.8,80,29.90,10.0,WNW,21.9,29.9,N/A,,Partly Cloudy,300,2013-04-19 03:35:00
10:55 PM,30.2,23.0,75,29.89,10.0,NW,23.0,31.1,N/A,,Clear,310,2013-04-19 03:55:00
11:15 PM,30.2,21.2,69,29.89,10.0,NW,21.9,28.8,N/A,,Clear,310,2013-04-19 04:15:00
11:35 PM,28.4,21.2,74,29.89,10.0,WNW,21.9,-,N/A,,Clear,300,2013-04-19 04:35:00
11:55 PM,28.4,21.2,74,29.88,10.0,WNW,24.2,28.8,N/A,,Clear,300,2013-04-19 04:55:00